Location: La Sioule Rivi�re
(46.3664°N, 3.3197°E)
Time: 12:12:02
(UTC+00:00)

Landsat 5 - Pass Details

Date: 29 October 2020
Orbit: 528 x 654 km, 98.2° (Epoch: 23 November)

Event Time Altitude Azimuth Distance (km) Brightness Sun altitude
Rises 17:03:48 0° 9° (N) 2,696 6.6 -5.4°
Reaches altitude 10° 17:05:56 10° 5° (N) 1,811 5.8 -5.8°
Maximum altitude 17:09:44 55° 288° (WNW) 667 4.1 -6.4°
Drops below altitude 10° 17:13:38 10° 210° (SSW) 1,850 6.7 -7.1°
Sets 17:15:49 0° 206° (SSW) 2,762 7.5 -7.4°
